Date String (YYYY-MM-DD hh:mm:ss) UTC,Instrument flags,Ambient pressure (hPa),Sample flow (lpm),Bypass flow (lpm),Sample temperature (°C),Ambient temperature (°C),ASC tube jacket temperature (°C),LED temperature (°C),Box temperature (°C),Sample RH (%),Span deviation,Mass concentration (μg/m³),Mass concentration (μg/m³),Mass concentration (μg/m³)
DateTimeUTC,F1_M11,P_M11,Q1_M11,Q2_M11,T1_M11,T2_M11,T3_M11,T4_M11,T5_M11,U1_M11,ZSPAN_M11,X0_M11,X2_M11,X1_M11
2022-07-05 14:00:00,,0826.8,5.01,0.00,29.9,27.3,00.0,38.6,31.7,22.5,0000.0,0008.13,0003.47,0003.07
2022-07-05 14:01:00,,0826.8,5.00,0.00,29.9,27.2,00.0,38.6,31.5,22.2,0000.0,0008.00,0003.53,0003.10
2022-07-05 14:02:00,,0826.8,5.00,0.00,29.8,27.3,00.0,38.6,31.4,22.4,0000.0,0008.00,0003.54,0003.12
2022-07-05 14:03:00,,0826.7,5.00,0.00,29.7,27.4,00.0,38.6,31.4,22.6,0000.0,0007.97,0003.53,0003.13
2022-07-05 14:04:00,,0826.8,5.00,0.00,29.7,27.6,00.0,38.5,31.4,22.8,0000.0,0008.04,0003.57,0003.15
2022-07-05 14:05:00,,0826.8,4.99,0.00,29.7,27.7,00.0,38.5,31.4,22.7,0000.0,0008.08,0003.63,0003.18
2022-07-05 14:06:00,,0826.8,5.00,0.00,29.7,27.9,00.0,38.5,31.4,22.9,0000.0,0008.73,0003.69,0003.21
2022-07-05 14:07:00,,0826.9,5.01,0.00,29.7,28.0,00.0,38.5,31.5,22.7,0000.0,0009.46,0003.70,0003.23
2022-07-05 14:08:00,,0826.9,5.01,0.00,29.7,28.1,00.0,38.5,31.5,22.7,0000.0,0008.64,0003.71,0003.24
2022-07-05 14:09:00,,0827.1,5.01,0.00,29.7,28.2,00.0,38.5,31.5,23.0,0000.0,0008.50,0003.75,0003.24
2022-07-05 14:10:00,,0826.8,5.00,0.00,29.7,28.3,00.0,38.5,31.5,22.7,0000.0,0008.29,0003.77,0003.24
2022-07-05 14:11:00,,0826.8,4.99,0.00,29.7,28.4,00.0,38.5,31.6,22.7,0000.0,0008.26,0003.74,0003.23
2022-07-05 14:12:00,,0826.9,5.00,0.00,29.7,28.5,00.0,38.5,31.6,22.4,0000.0,0008.13,0003.68,0003.23
2022-07-05 14:13:00,,0827.1,5.00,0.00,29.7,28.6,00.0,38.5,31.6,22.7,0000.0,0008.19,0003.68,0003.23
2022-07-05 14:14:00,,0826.9,5.00,0.00,29.8,28.6,00.0,38.5,31.7,23.0,0000.0,0008.27,0003.72,0003.23
2022-07-05 14:15:00,,0827.0,5.01,0.00,29.8,28.7,00.0,38.5,31.7,23.0,0000.0,0008.21,0003.68,0003.22
2022-07-05 14:16:00,,0827.1,5.00,0.00,29.8,28.7,00.0,38.5,31.7,23.4,0000.0,0008.40,0003.67,0003.22
2022-07-05 14:17:00,,0826.8,5.00,0.00,29.8,28.8,00.0,38.6,31.8,22.9,0000.0,0008.32,0003.68,0003.22
2022-07-05 14:18:00,,0826.9,5.00,0.00,29.8,28.8,00.0,38.6,31.7,23.1,0000.0,0007.72,0003.69,0003.22
2022-07-05 14:19:00,,0826.8,5.00,0.00,29.9,28.9,00.0,38.6,31.8,23.0,0000.0,0007.87,0003.69,0003.22
2022-07-05 14:20:00,,0827.0,5.00,0.00,29.9,28.9,00.0,38.6,31.8,22.2,0000.0,0007.94,0003.73,0003.23
2022-07-05 14:21:00,,0826.9,5.01,0.00,29.9,29.0,00.0,38.6,31.9,22.5,0000.0,0007.94,0003.76,0003.25
2022-07-05 14:22:00,,0827.0,5.00,0.00,30.0,29.0,00.0,38.7,31.9,22.6,0000.0,0008.00,0003.80,0003.26
2022-07-05 14:23:00,,0826.9,5.01,0.00,30.0,29.0,00.0,38.7,31.9,22.5,0000.0,0008.10,0003.83,0003.27
2022-07-05 14:24:00,,0826.9,4.99,0.00,30.0,28.4,00.0,38.6,31.9,22.3,0000.0,0008.09,0003.85,0003.29
2022-07-05 14:25:00,,0826.9,5.00,0.00,29.9,27.6,00.0,38.6,31.7,22.6,0000.0,0008.11,0003.84,0003.30
2022-07-05 14:26:00,,0826.9,5.02,0.00,29.9,27.3,00.0,38.5,31.6,22.3,0000.0,0008.24,0003.89,0003.33
2022-07-05 14:27:00,,0827.0,5.00,0.00,29.8,27.3,00.0,38.5,31.4,22.6,0000.0,0008.28,0003.94,0003.35
2022-07-05 14:28:00,,0826.9,5.00,0.00,29.7,27.4,00.0,38.5,31.4,22.8,0000.0,0008.20,0003.95,0003.36
2022-07-05 14:29:00,,0826.9,5.00,0.00,29.7,27.6,00.0,38.5,31.4,23.0,0000.0,0008.12,0003.97,0003.36
2022-07-05 14:30:00,,0827.0,5.00,0.00,29.7,27.7,00.0,38.5,31.4,23.3,0000.0,0008.03,0004.00,0003.37
2022-07-05 14:31:00,,0827.0,5.00,0.00,29.7,27.9,00.0,38.5,31.4,23.4,0000.0,0007.95,0003.95,0003.37
2022-07-05 14:32:00,,0827.1,5.00,0.00,29.7,28.0,00.0,38.5,31.5,23.6,0000.0,0008.30,0003.92,0003.36
2022-07-05 14:33:00,,0827.0,5.00,0.00,29.7,28.1,00.0,38.5,31.5,23.9,0000.0,0009.00,0003.89,0003.36
2022-07-05 14:34:00,,0826.9,5.00,0.00,29.7,28.3,00.0,38.5,31.5,24.1,0000.0,0009.77,0003.89,0003.36
2022-07-05 14:35:00,,0827.0,5.00,0.00,29.7,28.4,00.0,38.5,31.6,24.2,0000.0,0010.03,0003.92,0003.36
2022-07-05 14:36:00,,0827.0,5.00,0.00,29.7,28.5,00.0,38.5,31.6,24.5,0000.0,0010.70,0003.93,0003.35
2022-07-05 14:37:00,,0827.0,5.00,0.00,29.7,28.5,00.0,38.5,31.7,25.0,0000.0,0010.57,0003.89,0003.33
2022-07-05 14:38:00,,0827.0,5.01,0.00,29.8,28.6,00.0,38.5,31.7,25.3,0000.0,0010.30,0003.82,0003.32
2022-07-05 14:39:00,,0826.9,5.00,0.00,29.8,28.7,00.0,38.5,31.7,25.4,0000.0,0010.08,0003.80,0003.31
2022-07-05 14:40:00,,0827.0,5.00,0.00,29.8,28.7,00.0,38.5,31.7,25.5,0000.0,0010.25,0003.79,0003.31
2022-07-05 14:41:00,,0826.9,5.00,0.00,29.8,28.8,00.0,38.5,31.8,25.6,0000.0,0010.79,0003.79,0003.32
2022-07-05 14:42:00,,0827.0,5.00,0.00,29.9,28.9,00.0,38.6,31.8,25.7,0000.0,0010.98,0003.79,0003.31
2022-07-05 14:43:00,,0827.0,5.01,0.00,29.9,28.9,00.0,38.6,31.8,25.8,0000.0,0010.60,0003.79,0003.30
2022-07-05 14:44:00,,0827.0,5.00,0.00,29.9,29.0,00.0,38.6,31.9,26.1,0000.0,0009.85,0003.80,0003.30
2022-07-05 14:45:00,,0827.0,5.00,0.00,29.9,28.7,00.0,38.6,31.9,25.8,0000.0,0009.05,0003.80,0003.29
2022-07-05 14:46:00,,0827.1,5.00,0.00,29.9,28.0,00.0,38.5,31.7,25.9,0000.0,0008.92,0003.76,0003.29
2022-07-05 14:47:00,,0827.0,5.00,0.00,29.9,27.5,00.0,38.5,31.6,26.2,0000.0,0008.29,0003.75,0003.29
2022-07-05 14:48:00,,0827.2,5.02,0.00,29.8,27.5,00.0,38.5,31.5,26.2,0000.0,0008.48,0003.76,0003.29
2022-07-05 14:49:00,,0827.2,4.99,0.00,29.7,27.6,00.0,38.5,31.4,26.5,0000.0,0008.52,0003.80,0003.29
2022-07-05 14:50:00,,0827.1,5.00,0.00,29.7,27.7,00.0,38.5,31.4,26.6,0000.0,0008.53,0003.81,0003.29
2022-07-05 14:51:00,,0827.0,5.00,0.00,29.7,27.8,00.0,38.5,31.4,25.8,0000.0,0008.48,0003.84,0003.30
2022-07-05 14:52:00,,0827.0,4.99,0.00,29.7,28.0,00.0,38.5,31.5,25.7,0000.0,0007.97,0003.83,0003.29
2022-07-05 14:53:00,,0827.1,5.00,0.00,29.7,28.1,00.0,38.5,31.5,26.3,0000.0,0007.80,0003.83,0003.30
2022-07-05 14:54:00,,0827.2,4.99,0.00,29.7,28.2,00.0,38.5,31.5,26.3,0000.0,0007.85,0003.84,0003.30
2022-07-05 14:55:00,,0826.9,5.00,0.00,29.7,28.4,00.0,38.5,31.6,26.3,0000.0,0007.79,0003.83,0003.30
2022-07-05 14:56:00,,0827.2,5.00,0.00,29.7,28.5,00.0,38.5,31.6,27.2,0000.0,0007.89,0003.84,0003.30
2022-07-05 14:57:00,,0827.3,5.00,0.00,29.8,28.5,00.0,38.5,31.7,26.7,0000.0,0008.07,0003.87,0003.31
2022-07-05 14:58:00,,0827.3,5.00,0.00,29.8,28.6,00.0,38.5,31.7,26.7,0000.0,0008.71,0003.92,0003.32
2022-07-05 14:59:00,,0827.1,5.00,0.00,29.8,28.7,00.0,38.5,31.7,26.7,0000.0,0008.77,0003.93,0003.33
